| time (UTC) | temp F | wind direction | speed knots | gust knots | rain 1hr in | rain 24hr in | rain mn in | humidity % | barometer mb |
| 20260507040032 | 71 | 51 | 5.2 | 10.4 | 0.00 | 0.00 | 0.00 | 91 | 1009.5 |
| 20260507034527 | 71 | 51 | 4.3 | 11.3 | 0.00 | 0.00 | 0.00 | 91 | 1009.4 |
| 20260507033031 | 71 | 51 | 4.3 | 11.3 | 0.00 | 0.00 | 0.00 | 91 | 1009.6 |
| 20260507031529 | 71 | 51 | 2.6 | 8.7 | 0.00 | 0.00 | 0.00 | 90 | 1009.9 |
| 20260507030028 | 71 | 51 | 2.6 | 7.8 | 0.00 | 0.00 | 0.00 | 90 | 1010.1 |
| 20260507024528 | 71 | 51 | 2.6 | 7.8 | 0.00 | 0.00 | 0.00 | 90 | 1010.1 |
| 20260507023030 | 71 | 51 | 4.3 | 8.7 | 0.00 | 0.00 | 0.00 | 90 | 1010.2 |
| 20260507021533 | 71 | 51 | 4.3 | 9.6 | 0.00 | 0.00 | 0.00 | 90 | 1010.2 |
| 20260507020036 | 71 | 51 | 4.3 | 10.4 | 0.00 | 0.00 | 0.00 | 90 | 1010.4 |
| 20260507014530 | 71 | 51 | 4.3 | 7.8 | 0.00 | 0.00 | 0.00 | 90 | 1010.4 |
| 20260507013043 | 71 | 51 | 3.5 | 7.8 | 0.00 | 0.00 | 0.00 | 90 | 1010.7 |
| 20260507011529 | 71 | 51 | 3.5 | 6.1 | 0.00 | 0.00 | 0.00 | 90 | 1010.8 |
| 20260507010034 | 71 | 51 | 6.1 | 8.7 | 0.00 | 0.00 | 0.00 | 90 | 1010.9 |
| 20260507004528 | 72 | 51 | 4.3 | 10.4 | 0.00 | 0.00 | 0.00 | 90 | 1011.0 |
| 20260507003038 | 72 | 51 | 5.2 | 10.4 | 0.00 | 0.00 | 0.00 | 89 | 1011.3 |
| 20260507001527 | 72 | 51 | 5.2 | 9.6 | 0.00 | 0.00 | 0.00 | 89 | 1011.4 |
| 20260507000034 | 72 | 51 | 4.3 | 8.7 | 0.00 | 0.00 | 0.00 | 89 | 1011.4 |
| 20260506234528 | 72 | 51 | 5.2 | 8.7 | 0.00 | 0.00 | 0.00 | 88 | 1011.6 |
| 20260506233028 | 72 | 51 | 5.2 | 8.7 | 0.00 | 0.00 | 0.00 | 88 | 1011.8 |
| 20260506231528 | 72 | 51 | 4.3 | 7.8 | 0.00 | 0.00 | 0.00 | 88 | 1011.8 |
| 20260506230029 | 72 | 51 | 3.5 | 7.8 | 0.00 | 0.00 | 0.00 | 87 | 1011.6 |
| 20260506224533 | 72 | 51 | 1.7 | 7.8 | 0.00 | 0.00 | 0.00 | 87 | 1011.5 |
| 20260506223039 | 72 | 51 | 4.3 | 8.7 | 0.00 | 0.00 | 0.00 | 87 | 1011.4 |
| 20260506221528 | 72 | 51 | 3.5 | 7.8 | 0.00 | 0.00 | 0.00 | 87 | 1011.3 |
| 20260506220030 | 72 | 51 | 3.5 | 6.1 | 0.00 | 0.00 | 0.00 | 87 | 1011.2 |
| 20260506214538 | 72 | 51 | 0.9 | 8.7 | 0.00 | 0.00 | 0.00 | 86 | 1011.3 |
| 20260506213028 | 72 | 51 | 5.2 | 15.6 | 0.00 | 0.00 | 0.00 | 86 | 1011.2 |
| 20260506211528 | 73 | 51 | 3.5 | 12.2 | 0.00 | 0.00 | 0.00 | 86 | 1011.1 |
| 20260506210030 | 72 | 51 | 7.0 | 12.2 | 0.00 | 0.00 | 0.00 | 86 | 1011.2 |
| 20260506204530 | 73 | 51 | 4.3 | 13.0 | 0.00 | 0.00 | 0.00 | 86 | 1011.2 |
| 20260506203027 | 73 | 51 | 5.2 | 13.0 | 0.00 | 0.00 | 0.00 | 87 | 1010.9 |
| 20260506201526 | 73 | 51 | 6.1 | 13.9 | 0.00 | 0.00 | 0.00 | 86 | 1010.8 |
| 20260506200028 | 73 | 51 | 4.3 | 12.2 | 0.00 | 0.00 | 0.00 | 86 | 1010.8 |
| 20260506194528 | 73 | 51 | 5.2 | 11.3 | 0.00 | 0.00 | 0.00 | 86 | 1010.9 |
| 20260506193028 | 73 | 51 | 4.3 | 13.9 | 0.00 | 0.00 | 0.00 | 85 | 1010.7 |
| 20260506191527 | 74 | 51 | 4.3 | 13.0 | 0.00 | 0.00 | 0.00 | 85 | 1010.7 |
| 20260506190028 | 74 | 51 | 6.1 | 13.0 | 0.00 | 0.00 | 0.00 | 85 | 1010.3 |
| 20260506184542 | 74 | 51 | 6.1 | 11.3 | 0.00 | 0.00 | 0.00 | 85 | 1010.0 |
| 20260506183037 | 74 | 51 | 6.1 | 11.3 | 0.00 | 0.00 | 0.00 | 85 | 1010.3 |
| 20260506181544 | 74 | 51 | 8.7 | 12.2 | 0.00 | 0.00 | 0.00 | 84 | 1010.0 |
| 20260506180034 | 75 | 51 | 6.1 | 13.9 | 0.00 | 0.00 | 0.00 | 83 | 1009.9 |
| 20260506174528 | 75 | 51 | 7.8 | 12.2 | 0.00 | 0.00 | 0.00 | 83 | 1009.9 |
| 20260506173031 | 76 | 51 | 6.1 | 13.0 | 0.00 | 0.00 | 0.00 | 83 | 1010.1 |
| 20260506171528 | 76 | 51 | 7.0 | 14.8 | 0.00 | 0.00 | 0.00 | 82 | 1010.1 |
| 20260506170028 | 75 | 51 | 7.8 | 16.5 | 0.00 | 0.00 | 0.00 | 82 | 1010.1 |
| 20260506164536 | 76 | 51 | 7.8 | 15.6 | 0.00 | 0.00 | 0.00 | 81 | 1010.1 |
| 20260506163030 | 76 | 51 | 7.8 | 14.8 | 0.00 | 0.00 | 0.00 | 81 | 1010.4 |
| 20260506161528 | 76 | 51 | 8.7 | 13.9 | 0.00 | 0.00 | 0.00 | 82 | 1010.7 |
| 20260506160030 | 76 | 51 | 7.0 | 14.8 | 0.00 | 0.00 | 0.00 | 81 | 1010.8 |
| 20260506154532 | 76 | 51 | 8.7 | 14.8 | 0.00 | 0.00 | 0.00 | 80 | 1010.9 |
| 20260506153029 | 76 | 51 | 8.7 | 14.8 | 0.00 | 0.00 | 0.00 | 79 | 1010.8 |
| 20260506151530 | 77 | 51 | 5.2 | 11.3 | 0.00 | 0.00 | 0.00 | 80 | 1011.0 |
| 20260506150033 | 76 | 51 | 7.8 | 14.8 | 0.00 | 0.00 | 0.00 | 81 | 1011.0 |
| 20260506144529 | 76 | 51 | 7.0 | 15.6 | 0.00 | 0.00 | 0.00 | 81 | 1011.0 |
| 20260506143031 | 76 | 51 | 7.0 | 13.9 | 0.00 | 0.00 | 0.00 | 80 | 1011.4 |
| 20260506141531 | 76 | 51 | 7.8 | 13.9 | 0.00 | 0.00 | 0.00 | 80 | 1011.5 |
| 20260506140030 | 76 | 51 | 7.0 | 14.8 | 0.00 | 0.00 | 0.00 | 81 | 1011.7 |
| 20260506134532 | 76 | 51 | 8.7 | 16.5 | 0.00 | 0.00 | 0.00 | 80 | 1011.8 |
| 20260506133027 | 76 | 51 | 9.6 | 15.6 | 0.00 | 0.00 | 0.00 | 80 | 1012.1 |
| 20260506131534 | 77 | 51 | 5.2 | 12.2 | 0.00 | 0.00 | 0.00 | 79 | 1012.2 |
| 20260506130028 | 76 | 51 | 3.5 | 12.2 | 0.00 | 0.00 | 0.00 | 81 | 1012.2 |
| 20260506124528 | 75 | 51 | 6.1 | 16.5 | 0.00 | 0.00 | 0.00 | 82 | 1012.3 |
| 20260506123053 | 75 | 51 | 8.7 | 18.2 | 0.00 | 0.00 | 0.00 | 82 | 1012.1 |
| 20260506121529 | 75 | 51 | 9.6 | 17.4 | 0.00 | 0.00 | 0.00 | 82 | 1012.3 |
| 20260506120029 | 75 | 51 | 10.4 | 19.1 | 0.00 | 0.00 | 0.00 | 82 | 1012.4 |
| 20260506114530 | 76 | 0 | 7.0 | 18.2 | 0.00 | 0.00 | 0.00 | 84 | 1012.5 |
| 20260506113038 | 75 | 51 | 8.7 | 20.0 | 0.00 | 0.00 | 0.00 | 85 | 1012.7 |
| 20260506111531 | 75 | 51 | 7.0 | 14.8 | 0.00 | 0.00 | 0.00 | 84 | 1012.9 |
| 20260506110030 | 75 | 51 | 7.0 | 14.8 | 0.00 | 0.00 | 0.00 | 84 | 1013.1 |
| 20260506104533 | 75 | 51 | 7.0 | 13.9 | 0.00 | 0.00 | 0.00 | 84 | 1013.1 |
| 20260506103027 | 75 | 51 | 8.7 | 13.0 | 0.00 | 0.00 | 0.00 | 83 | 1013.0 |
| 20260506101525 | 75 | 51 | 6.1 | 12.2 | 0.00 | 0.00 | 0.00 | 84 | 1012.7 |
| 20260506100028 | 75 | 51 | 4.3 | 12.2 | 0.00 | 0.00 | 0.00 | 86 | 1012.6 |
| 20260506094528 | 74 | 51 | 7.0 | 11.3 | 0.00 | 0.00 | 0.00 | 86 | 1012.5 |
| 20260506093027 | 73 | 51 | 3.5 | 12.2 | 0.00 | 0.00 | 0.00 | 88 | 1012.4 |
| 20260506091530 | 73 | 51 | 6.1 | 14.8 | 0.00 | 0.00 | 0.00 | 88 | 1012.4 |
| 20260506090033 | 73 | 51 | 6.1 | 14.8 | 0.00 | 0.00 | 0.00 | 89 | 1012.2 |
| 20260506084530 | 73 | 51 | 7.8 | 13.0 | 0.00 | 0.00 | 0.00 | 89 | 1012.0 |
| 20260506083028 | 72 | 51 | 3.5 | 13.0 | 0.00 | 0.00 | 0.00 | 91 | 1011.9 |
| 20260506081530 | 72 | 51 | 7.0 | 12.2 | 0.00 | 0.00 | 0.00 | 91 | 1012.0 |
| 20260506073030 | 72 | 51 | 5.2 | 10.4 | 0.00 | 0.00 | 0.00 | 92 | 1011.7 |
| 20260506071530 | 72 | 51 | 3.5 | 10.4 | 0.00 | 0.00 | 0.00 | 93 | 1011.7 |
| 20260506061528 | 72 | 51 | 5.2 | 9.6 | 0.00 | 0.00 | 0.00 | 92 | 1011.4 |
| 20260506044530 | 72 | 51 | 2.6 | 8.7 | 0.00 | 0.00 | 0.00 | 92 | 1010.7 |
| 20260506043030 | 72 | 51 | 4.3 | 6.1 | 0.00 | 0.00 | 0.00 | 91 | 1010.5 |
| 20260506041528 | 72 | 51 | 3.5 | 7.8 | 0.00 | 0.00 | 0.00 | 91 | 1010.8 |